Change the Weather History Date:

Wednesday, October 27, 2010

  Actual Average Record
Temperature  
Mean Temperature 58 °F -  
Max Temperature 70 °F 60 °F 84 °F (1963)
Min Temperature 46 °F 36 °F 21 °F (1962)
Degree Days  
Heating Degree Days 7    
Growing Degree Days 8 (Base 50)    
Moisture  
Dew Point 44 °F    
Average Humidity 65    
Maximum Humidity 97    
Minimum Humidity 31    
Precipitation  
Precipitation 0.01 in - - ()
Sea Level Pressure  
Sea Level Pressure 29.84 in    
Wind  
Wind Speed 7 mph (South)    
Max Wind Speed 17 mph    
Max Gust Speed 28 mph    
Visibility 10 miles    
Events      
Averages and records for this station are not official NWS values.
T = Trace of Precipitation, MM = Missing Value Source: NWS Daily Summary

Daily Weather History Graph

Daily Weather History Graph

Search for Another Location

Airport or City:

Trip Planner

Search our weather history database for the weather conditions in past years. The results will help you decide how hot, cold, wet, or windy it might be!

Date:

Astronomy

Oct. 27, 2010 Rise Set
Actual Time 7:53 AM EDT 6:34 PM EDT
Civil Twilight 7:25 AM EDT 7:02 PM EDT
Nautical Twilight 6:54 AM EDT 7:34 PM EDT
Astronomical Twilight 6:22 AM EDT 8:05 PM EDT
Moon 9:57 PM EDT (10/27) 12:26 PM EDT (10/27)
Length of Visible Light 11h 36m
Length of Day
10h 41m
Waning Gibbous, 79% of the Moon is Illuminated
Oct 27
Waning Gibbous
Oct 30
Last Quarter
Nov 6
New
Nov 13
First Quarter
Nov 21
Full

Hourly Weather History & Observations

Time (EDT) Temp. Windchill Dew Point Humidity Pressure Visibility Wind Dir Wind Speed Gust Speed Precip Events Conditions
12:53 AM 48.0 °F - 46.0 °F 93% 29.79 in 10.0 mi SSE 5.8 mph - N/A   Clear
1:53 AM 46.9 °F - 45.0 °F 93% 29.80 in 10.0 mi SSE 4.6 mph - N/A   Clear
2:53 AM 46.0 °F 43.9 °F 45.0 °F 96% 29.81 in 10.0 mi SSE 4.6 mph - N/A   Clear
3:53 AM 46.0 °F 43.9 °F 45.0 °F 96% 29.82 in 10.0 mi SSE 4.6 mph - N/A   Clear
4:53 AM 46.9 °F - 46.0 °F 97% 29.83 in 10.0 mi SE 4.6 mph - N/A   Clear
5:53 AM 46.0 °F 43.1 °F 45.0 °F 96% 29.84 in 10.0 mi SE 5.8 mph - N/A   Clear
6:53 AM 46.0 °F 43.9 °F 45.0 °F 96% 29.86 in 10.0 mi SE 4.6 mph - N/A   Clear
7:53 AM 46.9 °F - 46.0 °F 97% 29.86 in 10.0 mi SSE 3.5 mph - N/A   Clear
8:53 AM 50.0 °F - 48.9 °F 96% 29.88 in 10.0 mi SSE 4.6 mph - N/A   Clear
9:53 AM 54.0 °F - 50.0 °F 86% 29.88 in 10.0 mi South 9.2 mph - N/A   Clear
10:53 AM 57.9 °F - 50.0 °F 75% 29.89 in 10.0 mi SSW 9.2 mph - N/A   Clear
11:53 AM 62.1 °F - 48.9 °F 62% 29.89 in 10.0 mi South 11.5 mph - 0.01 in   Clear
12:53 PM 64.0 °F - 45.0 °F 50% 29.86 in 10.0 mi SSW 12.7 mph 27.6 mph N/A   Clear
1:53 PM 66.9 °F - 42.1 °F 40% 29.86 in 10.0 mi SSW 12.7 mph 25.3 mph N/A   Clear
2:53 PM 68.0 °F - 43.0 °F 40% 29.83 in 10.0 mi SSW 15.0 mph 24.2 mph N/A   Clear
3:53 PM 70.0 °F - 37.9 °F 31% 29.81 in 10.0 mi SSW 17.3 mph 27.6 mph N/A   Clear
4:53 PM 70.0 °F - 39.0 °F 32% 29.81 in 10.0 mi SW 13.8 mph 21.9 mph N/A   Clear
5:53 PM 69.1 °F - 41.0 °F 36% 29.81 in 10.0 mi SSW 15.0 mph 19.6 mph N/A   Clear
6:53 PM 66.0 °F - 41.0 °F 40% 29.81 in 10.0 mi SSW 8.1 mph - N/A   Clear
7:53 PM 63.0 °F - 41.0 °F 45% 29.83 in 10.0 mi SSW 6.9 mph - N/A   Clear
8:53 PM 63.0 °F - 39.9 °F 43% 29.83 in 10.0 mi SSW 9.2 mph - N/A   Clear
9:53 PM 64.0 °F - 39.9 °F 41% 29.83 in 10.0 mi SSW 9.2 mph - N/A   Partly Cloudy
10:53 PM 64.0 °F - 41.0 °F 43% 29.84 in 10.0 mi SW 10.4 mph 17.3 mph N/A   Mostly Cloudy
11:53 PM 63.0 °F - 41.0 °F 45% 29.86 in 10.0 mi SW 8.1 mph - N/A   Partly Cloudy